Appleton, MN

11:36 AM CDT on April 19, 2018 (GMT -0500)
Appleton Municipal

Weather History for KAQP - May, 2012

Change the Weather History Date:

Saturday, May 5, 2012

  Actual Average Record
Temperature  
Mean Temperature 57 °F -  
Max Temperature 64 °F 63 °F 91 °F (2000)
Min Temperature 50 °F 39 °F 6 °F (1999)
Degree Days  
Heating Degree Days 8    
Growing Degree Days 7 (Base 50)    
Moisture  
Dew Point 52 °F    
Average Humidity 90    
Maximum Humidity 100    
Minimum Humidity 73    
Precipitation  
Precipitation 0.36 in - - ()
Sea Level Pressure  
Sea Level Pressure 29.93 in    
Wind  
Wind Speed 9 mph (ENE)    
Max Wind Speed 23 mph    
Max Gust Speed 24 mph    
Visibility 8 miles    
Events Rain , Thunderstorm    
Averages and records for this station are not official NWS values.
T = Trace of Precipitation, MM = Missing Value Source: NWS Daily Summary

Daily Weather History Graph

Daily Weather History Graph

Search for Another Location

Airport or City:

Astronomy

May. 05, 2012 Rise Set
Actual Time 6:06 AM CDT 8:35 PM CDT
Civil Twilight 5:33 AM CDT 9:09 PM CDT
Nautical Twilight 4:51 AM CDT 9:50 PM CDT
Astronomical Twilight 4:04 AM CDT 10:38 PM CDT
Moon 8:31 PM CDT (5/5) 5:30 AM CDT (5/5)
Length of Visible Light 15h 35m
Length of Day
14h 29m
Full, 100% of the Moon is Illuminated
May 5
Full
May 5
Full
May 12
Last Quarter
May 20
New
May 28
First Quarter

Hourly Weather History & Observations

Time (CDT) Temp. Dew Point Humidity Pressure Visibility Wind Dir Wind Speed Gust Speed Precip Events Conditions
12:15 AM 53.6 °F 48.2 °F 82% 29.95 in 10.0 mi East 9.2 mph - N/A   Overcast
12:34 AM 53.6 °F 48.2 °F 82% 29.95 in 10.0 mi ENE 9.2 mph - N/A   Overcast
12:54 AM 53.6 °F 48.2 °F 82% 29.95 in 10.0 mi ENE 8.1 mph - N/A   Overcast
1:14 AM 53.6 °F 48.2 °F 82% 29.96 in 10.0 mi ENE 5.8 mph - N/A   Overcast
1:34 AM 53.6 °F 48.2 °F 82% 29.96 in 10.0 mi East 10.4 mph - N/A   Overcast
1:54 AM 51.8 °F 48.2 °F 88% 29.95 in 10.0 mi East 11.5 mph - N/A   Overcast
2:14 AM 51.8 °F 48.2 °F 88% 29.94 in 10.0 mi East 10.4 mph - N/A   Overcast
2:34 AM 51.8 °F 48.2 °F 88% 29.95 in 10.0 mi East 8.1 mph - N/A   Overcast
2:54 AM 51.8 °F 48.2 °F 88% 29.95 in 10.0 mi East 8.1 mph - N/A   Overcast
3:15 AM 51.8 °F 48.2 °F 88% 29.95 in 10.0 mi East 6.9 mph - N/A   Overcast
3:34 AM 51.8 °F 48.2 °F 88% 29.93 in 10.0 mi East 10.4 mph - N/A   Overcast
4:14 AM 50.0 °F 48.2 °F 94% 29.95 in 10.0 mi East 6.9 mph - N/A   Overcast
4:34 AM 50.0 °F 48.2 °F 94% 29.94 in 10.0 mi ENE 4.6 mph - N/A   Overcast
4:54 AM 50.0 °F 48.2 °F 94% 29.95 in 10.0 mi East 3.5 mph - N/A   Overcast
5:14 AM 51.8 °F 48.2 °F 88% 29.95 in 10.0 mi ENE 3.5 mph - N/A   Overcast
5:35 AM 51.8 °F 48.2 °F 88% 29.93 in 10.0 mi ENE 4.6 mph - N/A   Overcast
5:54 AM 51.8 °F 48.2 °F 88% 29.95 in 10.0 mi ENE 4.6 mph - N/A   Overcast
6:15 AM 50.0 °F 48.2 °F 94% 29.95 in 10.0 mi ENE 4.6 mph - N/A   Overcast
6:34 AM 50.0 °F 48.2 °F 94% 29.96 in 10.0 mi NE 6.9 mph - N/A   Overcast
6:54 AM 50.0 °F 48.2 °F 94% 29.95 in 4.0 mi NE 8.1 mph - N/A   Overcast
7:14 AM 50.0 °F 48.2 °F 94% 29.96 in 7.0 mi ENE 5.8 mph - N/A   Overcast
7:34 AM 51.8 °F 48.2 °F 88% 29.95 in 7.0 mi ENE 6.9 mph - N/A   Overcast
7:54 AM 51.8 °F 48.2 °F 88% 29.97 in 4.0 mi ENE 5.8 mph - N/A   Overcast
8:15 AM 51.8 °F 48.2 °F 88% 29.97 in 2.5 mi ENE 8.1 mph - N/A   Overcast
8:35 AM 51.8 °F 50.0 °F 94% 29.95 in 2.5 mi ENE 10.4 mph - N/A   Overcast
8:54 AM 51.8 °F 50.0 °F 94% 29.96 in 2.0 mi NE 8.1 mph - N/A   Overcast
9:15 AM 51.8 °F 50.0 °F 94% 29.98 in 3.0 mi NE 5.8 mph - N/A   Overcast
9:34 AM 51.8 °F 50.0 °F 94% 29.99 in 3.0 mi ENE 4.6 mph - N/A Thunderstorm Overcast
9:55 AM 51.8 °F 50.0 °F 94% 29.99 in 2.5 mi NE 9.2 mph - N/A   Overcast
10:14 AM 51.8 °F 51.8 °F 100% 29.97 in 2.5 mi NE 13.8 mph - N/A   Overcast
10:34 AM 51.8 °F 51.8 °F 100% 30.00 in 5.0 mi ENE 6.9 mph - N/A Rain Light Rain
10:54 AM 51.8 °F 50.0 °F 94% 30.01 in 7.0 mi Calm Calm - N/A Rain Light Rain
11:14 AM 51.8 °F 51.8 °F 100% 30.02 in 7.0 mi North 4.6 mph - N/A Rain , Thunderstorm Light Thunderstorms and Rain
11:35 AM 51.8 °F 51.8 °F 100% 30.03 in 7.0 mi Calm Calm - 0.01 in Rain , Thunderstorm Heavy Thunderstorms and Rain
11:54 AM 51.8 °F 51.8 °F 100% 30.08 in 5.0 mi WSW 4.6 mph - 0.05 in Rain , Thunderstorm Heavy Thunderstorms and Rain
12:15 PM 51.8 °F 51.8 °F 100% 29.88 in 3.0 mi ENE 23.0 mph - 0.08 in Rain , Thunderstorm Heavy Thunderstorms and Rain
12:34 PM 51.8 °F 51.8 °F 100% 29.95 in 7.0 mi ENE 6.9 mph - 0.09 in Rain Light Rain
12:54 PM 53.6 °F 51.8 °F 94% 30.00 in 7.0 mi North 8.1 mph - 0.09 in Rain Light Rain
1:15 PM 53.6 °F 51.8 °F 94% 29.98 in 5.0 mi ENE 8.1 mph - 0.03 in Rain Rain
1:35 PM 53.6 °F 51.8 °F 94% 29.91 in 5.0 mi ENE 12.7 mph - 0.05 in Rain Light Rain
1:55 PM 55.4 °F 53.6 °F 94% 29.90 in 5.0 mi ENE 17.3 mph - 0.05 in   Scattered Clouds
2:15 PM 55.4 °F 53.6 °F 94% 29.89 in 7.0 mi ENE 13.8 mph - N/A   Scattered Clouds
2:35 PM 57.2 °F 55.4 °F 94% 29.88 in 7.0 mi East 18.4 mph 23.0 mph N/A   Scattered Clouds
2:54 PM 60.8 °F 55.4 °F 82% 29.88 in 10.0 mi East 16.1 mph 20.7 mph N/A   Scattered Clouds
3:14 PM 62.6 °F 55.4 °F 77% 29.89 in 10.0 mi East 13.8 mph - N/A   Scattered Clouds
3:35 PM 62.6 °F 55.4 °F 77% 29.88 in 10.0 mi East 17.3 mph 24.2 mph N/A   Scattered Clouds
3:54 PM 64.4 °F 55.4 °F 73% 29.88 in 10.0 mi East 19.6 mph - N/A Thunderstorm Scattered Clouds
4:15 PM 60.8 °F 55.4 °F 82% 29.90 in 10.0 mi East 11.5 mph - N/A   Mostly Cloudy
4:34 PM 62.6 °F 57.2 °F 82% 29.89 in 10.0 mi ESE 12.7 mph 16.1 mph N/A   Overcast
4:55 PM 60.8 °F 55.4 °F 82% 29.90 in 10.0 mi ESE 10.4 mph - N/A   Overcast
5:14 PM 60.8 °F 55.4 °F 82% 29.91 in 10.0 mi ESE 10.4 mph - N/A   Overcast
5:35 PM 60.8 °F 55.4 °F 82% 29.91 in 10.0 mi East 9.2 mph - N/A   Overcast
5:55 PM 60.8 °F 55.4 °F 82% 29.90 in 10.0 mi East 11.5 mph - N/A   Overcast
6:15 PM 60.8 °F 55.4 °F 82% 29.90 in 10.0 mi East 10.4 mph - N/A   Overcast
6:34 PM 60.8 °F 55.4 °F 82% 29.90 in 10.0 mi East 10.4 mph - N/A   Overcast
6:54 PM 60.8 °F 55.4 °F 82% 29.89 in 10.0 mi East 9.2 mph - N/A   Overcast
7:15 PM 60.8 °F 55.4 °F 82% 29.91 in 10.0 mi East 8.1 mph - N/A   Overcast
7:34 PM 60.8 °F 55.4 °F 82% 29.90 in 10.0 mi East 10.4 mph - N/A   Overcast
7:54 PM 59.0 °F 55.4 °F 88% 29.88 in 10.0 mi East 12.7 mph - N/A   Overcast
8:14 PM 59.0 °F 55.4 °F 88% 29.88 in 10.0 mi East 10.4 mph - N/A   Overcast
8:34 PM 57.2 °F 55.4 °F 94% 29.88 in 10.0 mi East 10.4 mph - N/A   Overcast
8:55 PM 57.2 °F 55.4 °F 94% 29.88 in 10.0 mi East 10.4 mph - N/A Thunderstorm Overcast
9:14 PM 57.2 °F 55.4 °F 94% 29.87 in 10.0 mi East 15.0 mph - N/A Rain , Thunderstorm Light Thunderstorms and Rain
9:34 PM 57.2 °F 55.4 °F 94% 29.91 in 10.0 mi East 6.9 mph - 0.07 in Rain , Thunderstorm Light Thunderstorms and Rain
9:54 PM 55.4 °F 53.6 °F 94% 29.89 in 7.0 mi East 16.1 mph - 0.09 in Rain , Thunderstorm Rain
10:14 PM 55.4 °F 53.6 °F 94% 29.90 in 7.0 mi East 15.0 mph 23.0 mph 0.01 in Rain , Thunderstorm Light Thunderstorms and Rain
10:34 PM 55.4 °F 53.6 °F 94% 29.88 in 7.0 mi East 17.3 mph - 0.02 in Rain , Thunderstorm Light Thunderstorms and Rain
11:14 PM 55.4 °F 53.6 °F 94% 29.85 in 5.0 mi NE 15.0 mph 19.6 mph 0.01 in Rain , Thunderstorm Thunderstorms and Rain
11:35 PM 55.4 °F 53.6 °F 94% 29.86 in 10.0 mi NE 15.0 mph 18.4 mph 0.04 in Rain , Thunderstorm Rain
11:54 PM 55.4 °F 53.6 °F 94% 29.81 in 7.0 mi East 21.9 mph - 0.06 in Rain , Thunderstorm Rain